Regional Weather Roundup
Issued by NWS

Home | Current Version | Previous Version | Graphics & Text | Print | Product List | Glossary On
Versions: 1 2 3 4 5 6 7 8 9 10 11 12 13 14 15 16 17 18 19 20 21 22 23 24 25 26 27 28 29 30 31 32 33 34 35 36 37 38 39 40 41 42 43 44 45 46 47 48 49 50
400
ASUS45 KCYS 281810
RWRWY

WYOMING REGIONAL WEATHER ROUNDUP
NATIONAL WEATHER SERVICE CHEYENNE WY
1200 PM MDT SAT MAY 28 2016

NOTE:  "FAIR" INDICATES FEW OR NO CLOUDS BELOW 12,000 FEET
WITH NO SIGNIFICANT WEATHER AND/OR OBSTRUCTIONS TO VISIBILITY.

WYZ001-281900-
YELLOWSTONE NATIONAL PARK

CITY           SKY/WX    TMP DP  RH WIND       PRES   REMARKS
LK YELLOWSTONE   N/A     45  25  45 VRB7      30.12R
6HR MIN TEMP:  32; 6HR MAX TEMP:  47;

W YELLOWSTONE  NOT AVBL

$$
WYZ002>013-054>058-071-098>099-281900-
NORTHERN WYOMING

CITY           SKY/WX    TMP DP  RH WIND       PRES   REMARKS
JACKSON        SUNNY     55  21  26 MISG      30.07S
CODY           FAIR      55  43  62 N6        29.99F
GREYBULL       FAIR      61  48  62 S5        29.97F
6HR MIN TEMP:  49; 6HR MAX TEMP:  62; 6HR PCP:  0.06;

WORLAND        FAIR      63  43  48 VRB3      29.98F
6HR MIN TEMP:  46; 6HR MAX TEMP:  63;

SHERIDAN       LGT RAIN  56  47  71 NW8       30.00S
6HR MIN TEMP:  48; 6HR MAX TEMP:  59; 6HR PCP: TRACE;

BUFFALO        CLOUDY    57  45  64 N10       30.02S
6HR MIN TEMP:  46; 6HR MAX TEMP:  57; 6HR PCP: TRACE;

GILLETTE       PTSUNNY   63  46  54 VRB7      29.97S
6HR MIN TEMP:  45; 6HR MAX TEMP:  64;

HULETT         MOCLDY    61  46  59 W7        29.98S
NEWCASTLE      FAIR      66  37  34 SW5       29.95F

$$
WYZ014>020-022>026-101>103-281900-
CENTRAL WYOMING

CITY           SKY/WX    TMP DP  RH WIND       PRES   REMARKS
BIG PINEY      FAIR      57  31  37 W13G21    30.11S
6HR MIN TEMP:  35; 6HR MAX TEMP:  58;

PINEDALE       FAIR      52  30  43 W9        30.11F
DUBOIS         FAIR      55  19  24 MISG      30.04F
LANDER         FAIR      61  37  41 VRB3      29.99F
6HR MIN TEMP:  39; 6HR MAX TEMP:  62;

RIVERTON       FAIR      61  31  32 NW5       30.01S
6HR MIN TEMP:  42; 6HR MAX TEMP:  63;

CASPER         CLOUDY    55  39  54 SE8       29.99S THUNDER
6HR MIN TEMP:  36; 6HR MAX TEMP:  62; 6HR PCP: TRACE;

DOUGLAS          N/A    N/A N/A N/A MISG      29.98S

$$
WYZ021-027>030-104>119-281900-
SOUTHERN WYOMING

CITY           SKY/WX    TMP DP  RH WIND       PRES   REMARKS
EVANSTON       PTSUNNY   56  35  45 W13       30.11S
6HR MIN TEMP:  39; 6HR MAX TEMP:  58;

KEMMERER         N/A     55  36  47 W16G24    30.13R
FORT BRIDGER   PTCLDY    61  36  39 W15G22    30.14S
ROCK SPRINGS   FAIR      59  33  37 W16       30.10S
6HR MIN TEMP:  41; 6HR MAX TEMP:  59;

DIXON          FAIR      61  36  39 W9G22     30.13F
RAWLINS        CLOUDY    55  34  45 W16       30.10R
6HR MIN TEMP:  43; 6HR MAX TEMP:  61;

SARATOGA       CLOUDY    54  34  47 W17G26    30.12S
LARAMIE        CLOUDY    56  32  40 NW7       30.09R
6HR MIN TEMP:  35; 6HR MAX TEMP:  57; 6HR PCP: TRACE;

CHEYENNE       PTSUNNY   63  34  33 W8G16     30.04S
6HR MIN TEMP:  45; 6HR MAX TEMP:  66;

TORRINGTON     FAIR      68  45  43 SW6       29.95F
6HR MIN TEMP:  40; 6HR MAX TEMP:  69;

PINE BLUFFS    MOCLDY    68  37  32 W9        30.01F

$$




USA.gov is the U.S. government's official web portal to all federal, state and local government web resources and services.